This is the latest recevied weather packets stored in our database for station/object HB9FHL-13. If no packets are shown the sender has not sent any weather packets the latest 10 day(s).
| Time | Temp. | Humidity | Pressure | Rain* | Wind** | Luminosity | Snow |
|---|---|---|---|---|---|---|---|
| 1777643804 | 17.78° C | - | 1023 hPa | 0 mm | - | - | - |
| 1777643503 | 17.78° C | - | 1024.3 hPa | 0 mm | - | - | - |
| 1777643199 | 17.78° C | - | 1021.6 hPa | 0 mm | - | - | - |
| 1777642896 | 17.78° C | - | 1016.3 hPa | 0 mm | - | - | - |
| 1777642600 | 17.22° C | - | 1026.9 hPa | 0 mm | - | - | - |
| 1777642295 | 18.33° C | - | 1025.1 hPa | 0 mm | - | - | - |
| 1777641993 | 17.78° C | - | 1024.5 hPa | 0 mm | - | - | - |
| 1777641688 | 17.78° C | - | 1022.5 hPa | 0 mm | - | - | - |
| 1777641387 | 16.67° C | - | 1021.4 hPa | 0 mm | - | - | - |
| 1777641085 | 16.67° C | - | 1025.2 hPa | 0 mm | - | - | - |
| 1777640784 | 17.22° C | - | 1023.3 hPa | 0 mm | - | - | - |
| 1777640484 | 16.67° C | - | 1022.6 hPa | 0 mm | - | - | - |
| 1777640183 | 17.78° C | - | 1030.4 hPa | 0 mm | - | - | - |
| 1777639881 | 16.67° C | - | 1022.2 hPa | 0 mm | - | - | - |
| 1777639581 | 17.22° C | - | 1021.2 hPa | 0 mm | - | - | - |
| 1777639280 | 16.67° C | - | 1023.8 hPa | 0 mm | - | - | - |
| 1777638980 | 16.11° C | - | 1021.2 hPa | 0 mm | - | - | - |
| 1777638676 | 16.67° C | - | 1023.8 hPa | 0 mm | - | - | - |
| 1777638376 | 16.67° C | - | 1027.4 hPa | 0 mm | - | - | - |
| 1777638077 | 16.11° C | - | 1025 hPa | 0 mm | - | - | - |
| 1777637773 | 15° C | - | 1019.9 hPa | 0 mm | - | - | - |
| 1777637472 | 16.11° C | - | 1026.4 hPa | 0 mm | - | - | - |
| 1777636880 | 16.11° C | - | 1026.2 hPa | 0 mm | - | - | - |
| 1777636569 | 15° C | - | 1019.8 hPa | 0 mm | - | - | - |
| 1777636269 | 15.56° C | - | 1023.6 hPa | 0 mm | - | - | - |
* Rain since midnight (hover to see other rain measurements)
** Current wind speed in m/s (hover to see current wind gust speed)